Regional Weather Roundup
Issued by NWS

Home | Current Version | Previous Version | Text Only | Print | Product List | Glossary On
Versions: 1 2 3 4 5 6 7 8 9 10 11 12 13 14 15 16 17 18 19 20 21 22 23 24 25 26 27 28 29 30 31 32 33 34 35 36 37 38 39 40 41 42 43 44 45 46 47 48 49 50
000
ASUS42 KTBW 201416
RWRFL
FLORIDA REGIONAL WEATHER ROUNDUP
NATIONAL WEATHER SERVICE TAMPA BAY RUSKIN FL
1000 AM EDT FRI OCT 20 2017

NOTE: "FAIR" INDICATES FEW OR NO CLOUDS BELOW 12,000 FEET WITH NO
SIGNIFICANT WEATHER AND/OR OBSTRUCTIONS TO VISIBILITY.

FLZ001>010-012>015-112-114-115-201500-
PANHANDLE FLORIDA

CITY           SKY/WX    TMP DP  RH WIND       PRES   REMARKS
PENSACOLA      SUNNY     71  59  65 E3        30.20R
PENSACOLA NAS  PTSUNNY   71  61  70 E13       30.19R
MILTON NAS     MOSUNNY   67  61  81 E6        30.21
CRESTVIEW      SUNNY     66  58  75 E8        30.23R
DUKE FIELD     MOSUNNY   68  58  70 NE5       30.21R
VALPARAISO     MOSUNNY   69  57  65 NE8       30.20R
MARY ESTHER    MOSUNNY   71  60  67 E10       30.19R
PANAMA CITY    FAIR      70  59  68 NE9       30.19S
TYNDALL AFB    SUNNY     70  59  67 E10       30.20R
APALACHICOLA   MOSUNNY   72  64  76 E12       30.18S

STATION/POSITION SKY/WX   TEMP    WIND        PRES    WAVE   SWELL
                          AIR SEA DIR/SP/G            HT/PER HT/PER
                          (F)     (DEG/KT/KT) (MB)    (FT/S) (FT/S)
30.1N   87.6W              77 79   90/ 19/ 23 1021.1R   5/ 6
29.2N   88.2W              80 82  100/ 17/ 21 1020.6
28.8N   86.0W              79 81   90/ 16/ 19 1020.0R   5/ 7
PANAMA CITY BEAC           68 78   40/  9/ 12 1022.8R
TOWER C                    74      80/ 21/ 23 1022.1R
28.5N   84.5W              78 80   80/ 16/ 17 1020.3R   4/ 6

$$
FLZ011-016>038-118-127-128-134-139-239-201500-
NORTH FLORIDA

CITY           SKY/WX    TMP DP  RH WIND       PRES   REMARKS
MARIANNA       SUNNY     68  58  70 E8        30.22S
TALLAHASSEE    MOSUNNY   72  60  66 E12       30.22R
PERRY          SUNNY     72  62  71 NE5       30.22R
LIVE OAK       SUNNY     72  68  88 NE8       30.23R
CROSS CITY     SUNNY     73  65  78 NE9       30.24R
LAKE CITY      FAIR      70  64  83 NE5       30.21R
GAINESVILLE    SUNNY     74  68  81 NE8       30.22R
WILLISTON      SUNNY     77  70  78 CALM      30.19R
PALATKA        FAIR      77  72  83 NE6       30.18S
MAYPORT NAS    MOSUNNY   78  71  79 NE15      30.20R
JACKSONVILLE   MOSUNNY   75  68  78 NE8       30.21R
JAX NAS        MOSUNNY   75  69  81 N9        30.20R
JAX CECIL      SUNNY     72  70  94 NE12      30.20R
ST AUGUSTINE   MOSUNNY   78  71  79 NE15      30.19R
PALM COAST     SUNNY     81  64  57 E12       30.17

STATION/POSITION SKY/WX   TEMP    WIND        PRES    WAVE   SWELL
                          AIR SEA DIR/SP/G            HT/PER HT/PER
                          (F)     (DEG/KT/KT) (MB)    (FT/S) (FT/S)
SHELL POINT      NOT AVBL
KEATON BEACH               72      60/ 11/ 15 1022.3R
CEDAR KEY                  74      60/ 10/ 12 1022.1R
FERNANDINA                 73 75  350/  9/ 13 1023.8R
30.7N   81.3W                 77                N/A     5/ 8
MAYPORT                    76 77   40/ 14/ 17 1023.1R
31.4N   80.9W              74 77   40/ 17/ 19 1023.0R   4/10   3/10
ST AUGUSTINE               77 77   30/ 17/ 19 1022.2R

$$
FLZ040-043>046-052-053-057-058-063-144-201500-
INTERIOR CENTRAL FLORIDA

CITY           SKY/WX    TMP DP  RH WIND       PRES   REMARKS
OCALA          MOSUNNY   75  68  78 N6        30.18R
THE VILLAGES     N/A     75  73  94 MISG      30.08R
LEESBURG       PTSUNNY   78  72  81 N7        30.17R
SANFORD        MOSUNNY   79  66  64 E12       30.15R
ORLANDO INTL   MOSUNNY   79  68  69 NE12      30.14S
KISSIMMEE      SUNNY     81  68  64 E14G22    30.15S
WINTER HAVEN     N/A    N/A N/A N/A MISG      30.15R
LAKELAND       SUNNY     77  70  78 NE10G16   30.14R
BARTOW         SUNNY     77  68  73 NE13      30.14R
SEBRING        FAIR      82  69  65 NE15      30.11S
OKEECHOBEE     SUNNY     81  70  69 NE12G20   30.09S

$$
FLZ041-047-054-059-064-141-147-201500-
EAST CENTRAL FLORIDA

CITY           SKY/WX    TMP DP  RH WIND       PRES   REMARKS
ORMOND BEACH   MOSUNNY   81  64  57 NE12G17   30.16S
DAYTONA BEACH  MOSUNNY   81  65  58 E20       30.16R
DELAND         SUNNY     79  68  69 E10       30.16R
NEW SMYRNA BEA MOSUNNY   81  63  54 NE15      30.17R
JFK SPACE CTR  MOSUNNY   81  71  73 E9G20     30.13S
TITUSVILLE     MOSUNNY   82  66  57 E16       30.15R
CAPE CANAVERAL SUNNY     80  67  63 NE12G20   30.13R
PATRICK AFB    SUNNY     81  68  65 NE16      30.13R
MELBOURNE      MOSUNNY   81  68  64 NE18      30.12R
VERO BEACH     MOSUNNY   81  71  71 NE15G25   30.11R
FT PIERCE      PTSUNNY   81  73  76 NE8G21    30.10R
STUART         LGT RAIN  82  75  78 E12G21    30.10R

STATION/POSITION SKY/WX   TEMP    WIND        PRES    WAVE   SWELL
                          AIR SEA DIR/SP/G            HT/PER HT/PER
                          (F)     (DEG/KT/KT) (MB)    (FT/S) (FT/S)
28.5N   80.2W              80 81   50/ 16/ 19 1020.4R   7/ 8   5/ 8
TRIDENT PIER               80 81   40/ 13/ 16 1022.1R
28.4N   80.5W                 80                N/A     4/ 8
27.5N   80.2W                 81                N/A     6/ 9   2/11

$$
FLZ050-056-061-142-242-148-248-149-249-151-251-155-255-
160-260-201500-
WEST CENTRAL FLORIDA

CITY           SKY/WX    TMP DP  RH WIND       PRES   REMARKS
CRYSTAL RIVER  FAIR      77  66  69 NE10      30.17S
INVERNESS      FAIR      77  70  78 NE7       30.17S
BROOKSVILLE    MOSUNNY   76  70  82 NE9       30.16S
CLEARWATER AIR FAIR      75  68  78 E10       30.13S
ST PETE CLEARW MOSUNNY   79  71  76 NE9       30.13R
TAMPA INTL     MOSUNNY   79  68  69 NE9G17    30.14R
TAMPA EXEC     SUNNY     77  72  83 NE6       30.14S
PLANT CITY       N/A    N/A N/A N/A NE13      30.15S
PETER O KNIGHT MOSUNNY   75  70  83 E12       30.14R
ST PETERSBURG  SUNNY     76  71  85 E17       30.11S
SARASOTA       SUNNY     78  70  76 E15G21    30.09S
VENICE         FAIR      81  72  74 NE15G23   30.10S

STATION/POSITION SKY/WX   TEMP    WIND        PRES    WAVE   SWELL
                          AIR SEA DIR/SP/G            HT/PER HT/PER
                          (F)     (DEG/KT/KT) (MB)    (FT/S) (FT/S)
CLEARWATER BEACH           76 78   40/  8/ 14 1020.5R
MIDDLE TAMPA BAY           76      70/ 15/ 18 1020.1R
VENICE                     78 81   50/ 13/ 17 1019.0S

$$
FLZ066-069-070-075>078-162-262-165-265-201500-
SOUTHWEST FLORIDA AND KEYS

CITY           SKY/WX    TMP DP  RH WIND       PRES   REMARKS
PUNTA GORDA    SUNNY     80  71  74 MISG      30.10S
FT MYERS       SUNNY     77  72  84 NE15G22   30.07R
SOUTHWEST INTL SUNNY     80  74  81 NE16      30.08R
NAPLES         SUNNY     80  74  81 NE16G24   30.05R
MARCO ISLAND     N/A     80  74  81 NE15      30.06S
IMMOKALEE      FAIR      81  75  83 NE13      30.08S
MARATHON       MOSUNNY   84  75  74 NE12      30.02R
KEY WEST NAS   MOSUNNY   83  78  85 NE12      30.03R
KEY WEST INTL  MOSUNNY   84  76  76 NE12      30.03R

STATION/POSITION SKY/WX   TEMP    WIND        PRES    WAVE   SWELL
                          AIR SEA DIR/SP/G            HT/PER HT/PER
                          (F)     (DEG/KT/KT) (MB)    (FT/S) (FT/S)
NAPLES                        81   40/  7/ 16 1017.8R
DRY TORTUGAS               82      70/ 16/ 18 1017.1R
SAND KEY                   81                 1017.3R
MOLASSES REEF              82 83   90/ 19/ 21 1016.9R

$$
FLZ067-068-071>074-168-172>174-201500-
SOUTHEAST FLORIDA

CITY           SKY/WX    TMP DP  RH WIND       PRES   REMARKS
W PALM BEACH   LGT RAIN  82  75  79 NE14G21   30.07R
BOCA RATON     MOSUNNY   82  75  78 E14       30.06R
FT LAUDER-EXEC MOSUNNY   83  74  74 NE15      30.05R
FT LAUDERDALE  PTSUNNY   83  75  77 NE12      30.04R
POMPANO BEACH  PTSUNNY   83  74  74 NE12      30.05R
PEMBROKE PINES MOSUNNY   83  73  72 NE16      30.06R
OPA LOCKA      MOSUNNY   83  74  74 E12       30.05R
MIAMI          PTSUNNY   85  74  69 NE13      30.04R
WEST KENDALL   PTSUNNY   82  75  79 NE8       30.04R
HOMESTEAD      SUNNY     83  77  80 NE14      30.03R

STATION/POSITION SKY/WX   TEMP    WIND        PRES    WAVE   SWELL
                          AIR SEA DIR/SP/G            HT/PER HT/PER
                          (F)     (DEG/KT/KT) (MB)    (FT/S) (FT/S)
PORT EVERGLADES            82      60/ 13/ 16 1017.5R
VIRGINIA KEY               83 83   50/ 11/ 14 1017.1R
LAKE WORTH                 81 82   60/ 19/ 22 1019.1R
FOWEY ROCKS                82 83   50/ 17/ 18 1017.9R
SETTLEMENT POINT           81      70/ 17/ 19 1018.3R

$$




USA.gov is the U.S. government's official web portal to all federal, state and local government web resources and services.